This demonstration page uses our WeatherBlox Daily Observations layout. Learn more.

Left ArrowRight Arrow

41.55636, -103.73856

Hourly Observations for July 25, 2018

Temp ( °F °C ) Dew Point ( °F °C ) Humidity (%) Winds ( mph kmh ) Pressure ( in mb ) Visibility ( mi km ) Precip ( " mm )
12:58 am 00:58 Clear 66 19 59 14.8 77 77 SSW 16 26 30.05 1018 10 16 N/A
1:58 am 01:58 Clear 65 18.4 55 12.6 69 69 SSW 15 24 30.03 1017 10 16 N/A
2:58 am 02:58 Clear 65 18.3 55 12.7 70 70 SW 13 20 30.01 1016 10 16 N/A
3:58 am 03:58 Clear 61 16.3 55 13 81 81 WSW 10 17 30.01 1016 10 16 N/A
4:58 am 04:58 Clear 62 16.8 57 13.7 82 82 NNW 13 20 30.05 1018 10 16 N/A
5:58 am 05:58 Mostly Cloudy 64 17.6 58 14.4 82 82 ENE 12 19 30.07 1018 10 16 N/A
6:58 am 06:58 Cloudy 62 16.8 58 14.6 87 87 E 25 41 30.09 1019 10 16 N/A
7:58 am 07:58 Partly Cloudy 63 17.4 53 11.9 70 70 E 13 20 30.11 1020 10 16 N/A
8:58 am 08:58 Sunny 68 20.1 52 11 56 56 E 14 22 30.14 1021 10 16 N/A
9:58 am 09:58 Sunny 72 22 51 10.6 48 48 ESE 6 9 30.14 1021 10 16 N/A
10:58 am 10:58 Sunny 73 22.9 53 11.4 48 48 N N/A 30.14 1021 10 16 N/A
11:58 am 11:58 Sunny 76 24.2 55 12.5 48 48 NW 5 7 30.14 1021 10 16 N/A
12:58 pm 12:58 Sunny 79 26.3 56 13.6 46 46 ENE 6 9 30.13 1020 10 16 N/A
1:58 pm 13:58 Mostly Sunny 80 26.5 55 13 43 43 SE 6 9 30.11 1020 10 16 N/A
2:58 pm 14:58 Mostly Sunny 81 27.3 55 12.5 40 40 NE 13 20 30.09 1019 10 16 N/A
3:58 pm 15:58 Mostly Cloudy 76 24.3 56 13.4 51 51 ENE 12 19 30.10 1019 10 16 N/A
4:58 pm 16:58 Cloudy with Thunderstorms 69 20.8 60 15.5 72 72 NE 13 20 30.19 1022 10 16 N/A
5:58 pm 17:58 Cloudy with Strong Thunderstorms 61 16.1 58 14.4 90 90 ESE 12 19 30.23 1024 4 6 0.40 10.16
6:58 pm 18:58 Cloudy with Light Showers 63 17.3 60 15.6 90 90 S 13 20 30.16 1021 10 16 0.02 0.51
7:58 pm 19:58 Cloudy 63 17.3 60 15.6 90 90 SSW 7 11 30.18 1022 10 16 N/A
8:58 pm 20:58 Mostly Cloudy 62 16.5 60 15.4 93 93 NE 5 7 30.20 1023 10 16 N/A
9:58 pm 21:58 Cloudy with Light Rain 63 17.1 61 16.2 94 94 NW 8 13 30.24 1024 10 16 0.01 0.25
10:58 pm 22:58 Mostly Cloudy 61 16.2 58 14.7 91 91 N 5 7 30.20 1023 10 16 0.02 0.51
11:58 pm 23:58 Cloudy 61 16.2 59 15.1 93 93 WSW 7 11 30.19 1022 10 16 N/A

Powered by AerisWeather